Regional Weather Roundup
Issued by NWS State College, PA

Home | Current Version | Previous Version | Text Only | Print | Product List | Glossary On
Versions: 1 2 3 4 5 6 7 8 9 10 11 12 13 14 15 16 17 18 19 20 21 22 23 24 25 26 27 28 29 30 31 32 33 34 35 36 37 38 39 40 41 42 43 44 45 46 47 48 49 50
000
ASUS41 KCTP 292010
RWRCTP

REGIONAL WEATHER ROUNDUP
NATIONAL WEATHER SERVICE STATE COLLEGE PA
400 PM EDT SAT APR 29 2017

Note: "fair" indicates few or no clouds below 12,000 feet with no
significant weather and/or obstructions to visibility.

* = STATION THAT DOES NOT REPORT PRECIPITATION /E.G. RAIN...SNOW...ETC/
    THUNDER OR FOG.

PAZ002>004-007>009-013>016-020>023-029>032-292100-
WESTERN PENNSYLVANIA

CITY           SKY/WX    TMP DP  RH WIND       PRES   REMARKS
ERIE           CLOUDY    49  42  77 N7        30.19R
MEADVILLE      CLOUDY    54  53  97 N8        30.14S
FRANKLIN*      CLOUDY    54  52  94 N6        30.16S
NEW CASTLE     CLOUDY    58  57  97 N10       30.14S
BEAVER COUNTY  CLOUDY    66  63  88 CALM      30.12S
BUTLER*        CLOUDY    66  63  88 SW7       30.13S
PITTSBURGH INT PTSUNNY   70  63  78 SW10      30.11F
PITTSBURGH     PTSUNNY   69  62  78 S8        30.11F
INDIANA*       PTSUNNY   70  66  88 SW9       30.15F
LATROBE        MOSUNNY   72  64  78 VRB6      30.13F
WASHINGTON CO* PTSUNNY   72  63  73 SW7       30.14S
$$

PAZ004>006-010>012-017>019-024>028-033>037-041-042-045-046-049>053-292100-
CENTRAL PENNSYLVANIA

CITY           SKY/WX    TMP DP  RH WIND       PRES   REMARKS
BRADFORD       LGT RAIN  53  53 100 NW10      30.15F
DUBOIS         CLOUDY    63  59  87 SW8       30.10F
CLEARFIELD     CLOUDY    67  63  87 SW10      30.10F
JOHNSTOWN      CLOUDY    71  60  68 W10       30.15F
ALTOONA        CLOUDY    75  59  57 W7        30.12F
STATE COLLEGE  MOSUNNY   68  63  83 W10       30.10F
WILLIAMSPORT   CLOUDY    72  61  68 W8        30.05F
SELINSGROVE    PTSUNNY   75  63  66 NW7G18    30.07F
FT INDIANTOWN  CLOUDY    81  60  48 W16G26    30.06S
CAPITAL CITY   PTSUNNY   83  62  49 W9        30.05F
HARRISBURG     CLOUDY    82  64  54 NW7       30.05F
YORK           CLOUDY    83  64  52 W7        30.06F
$$

PAZ038>040-043-044-047-048-054-055-060>062-067>071-292100-
EASTERN PENNSYLVANIA

CITY           SKY/WX    TMP DP  RH WIND       PRES   REMARKS
SCRANTON       CLOUDY    73  59  61 W21G30    30.08R
MOUNT POCONO   CLOUDY    70  59  68 W22G31    30.09R
ALLENTOWN      CLOUDY    80  59  48 NW20G31   30.05R
QUAKERTOWN*    PTCLDY    82  63  51 W10G18    30.05S
READING        CLOUDY    82  64  54 W9        30.04S
LANCASTER      CLOUDY    81  66  60 NW13      30.06F
COATESVILLE    CLOUDY    81  63  54 NW14      30.09S
POTTSTOWN      CLOUDY    81  60  48 W15G25    30.06R
BLUE BELL      CLOUDY    81  61  50 W16G24    30.05S
DOYLESTOWN     CLOUDY    83  62  49 W12G21    30.03R
WILLOW GROVE   NOT AVBL
NORTH PHILA    CLOUDY    86  60  41 W15G24    30.03R
PHILADELPHIA   PTSUNNY   87  58  37 NW21G29   30.03R
$$




USA.gov is the U.S. government's official web portal to all federal, state and local government web resources and services.